Flag for Bosnia-Herzegovina Weather past 2 weeks in Sarajevo, Bosnia-Herzegovina

Now
70 °F

Clear.


Feels Like: 70 °F
Forecast: 58 / 76 °F
Wind: 1 mph from North

Location: Sarajevo / Butmir

Current Time: Jul 29, 2014 at 11:02:46 PM

Latest Report: Jul 29, 2014 at 10:30 PM


Visibility: 10 mi

Pressure: 29.89 "Hg

Humidity: 78%

Dew point: 63 °F

Location of SarajevoLocation

Historic Weather in Sarajevo — Graph

°F

Sarajevo temperature yesterday

Maximum temperature yesterday: 73 °F (at 2:30 PM)
Minimum temperature yesterday: 61 °F (at 12:00 AM)
Average temperature yesterday: 66 °F

Past Weeks' High & Low Weather Summary

 TemperatureHumidityPressure
High86 °F (Jul 20, 4:00 PM)100% (Jul 15, 12:00 AM)30.15 "Hg (Jul 15, 12:00 AM)
Low55 °F (Jul 18, 5:00 AM)33% (Jul 20, 4:00 PM)29.77 "Hg (Jul 22, 2:30 PM)
Average68 °F78%29.99 "Hg
* Reported Jul 14 10:00 PM — Jul 29 10:00 PM, Sarajevo, Weather by CustomWeather, © 2014

Note: Actual official high and low records may vary slightly from our data, if they occured in-between our weather recording intervals... More about our weather records

Advertising

Sarajevo weather history for previous 24 hours

 ConditionsComfort  
Time TempWeatherWind HumidityBarometerVisibility
10:00 PM
Jul 29
70 °FClear.2 mph78%29.89 "Hg10 mi
9:30 PM72 °FClear.2 mph73%29.89 "Hg10 mi
9:00 PM72 °FSunny.2 mph73%29.89 "Hg10 mi
8:30 PM73 °FSunny.2 mph65%29.86 "Hg10 mi
8:00 PM75 °FScattered clouds.7 mph61%29.86 "HgN/A
7:30 PM75 °FScattered clouds.2 mph65%29.86 "HgN/A
7:00 PM77 °FScattered clouds.1 mph61%29.86 "HgN/A
6:30 PM79 °FScattered clouds.1 mph61%29.86 "HgN/A
6:00 PM79 °FScattered clouds.3 mph58%29.86 "HgN/A
5:30 PM81 °FScattered clouds.2 mph54%29.89 "HgN/A
5:00 PM81 °FScattered clouds.2 mph51%29.89 "HgN/A
4:30 PM82 °FScattered clouds.2 mph51%29.89 "HgN/A
4:00 PM82 °FScattered clouds.2 mph48%29.89 "HgN/A
3:30 PM82 °FPassing clouds.2 mph48%29.89 "HgN/A
3:00 PM81 °FPassing clouds.3 mph54%29.89 "HgN/A
2:30 PM79 °FPassing clouds.2 mph54%29.89 "HgN/A
2:00 PM79 °FPassing clouds.2 mph51%29.89 "HgN/A
1:30 PM81 °FPassing clouds.1 mph54%29.92 "HgN/A
1:00 PM77 °FPassing clouds.2 mph57%29.92 "HgN/A
12:30 PM75 °FPassing clouds.3 mph61%29.92 "HgN/A
12:00 PM75 °FPassing clouds.1 mph61%29.92 "HgN/A
11:30 AM73 °FPassing clouds.3 mph65%29.92 "HgN/A
11:00 AM73 °FPassing clouds.2 mph65%29.92 "HgN/A
10:30 AM72 °FPassing clouds.3 mph69%29.92 "HgN/A
10:00 AM70 °FPassing clouds.1 mph73%29.92 "HgN/A
9:30 AM70 °FPassing clouds.1 mph78%29.92 "HgN/A
9:00 AM64 °FPassing clouds.1 mph94%29.92 "HgN/A
8:30 AM63 °FPassing clouds.2 mph100%29.92 "Hg5 mi
8:00 AM61 °FFog.1 mph100%29.95 "Hg2 mi
7:30 AM61 °FFog.1 mph100%29.92 "Hg2 mi
7:00 AM59 °FFog.2 mph100%29.92 "Hg2 mi
6:30 AM59 °FPassing clouds.No wind100%29.92 "Hg5 mi
6:00 AM57 °FPassing clouds.1 mph100%29.92 "Hg5 mi
5:30 AM59 °FPassing clouds.1 mph94%29.92 "HgN/A
5:00 AM59 °FPassing clouds.2 mph100%29.92 "HgN/A
4:00 AM61 °FPassing clouds.2 mph94%29.92 "HgN/A
3:00 AM59 °FPassing clouds.1 mph100%29.92 "HgN/A
2:00 AM63 °FPassing clouds.2 mph94%29.92 "HgN/A
1:00 AM63 °FPassing clouds.1 mph94%29.92 "HgN/A
12:00 AM63 °FPassing clouds.No wind100%29.92 "HgN/A
11:00 PM
Jul 28
64 °FPassing clouds.No wind94%29.95 "HgN/A
Weather by CustomWeather, © 2014

See weather overviewHow to use our weather pages